Regional Weather Roundup
Issued by NWS

Home | Current Version | Previous Version | Text Only | Print | Product List | Glossary On
Versions: 1 2 3 4 5 6 7 8 9 10 11 12 13 14 15 16 17 18 19 20 21 22 23 24 25 26 27 28 29 30 31 32 33 34 35 36 37 38 39 40 41 42 43 44 45 46 47 48 49 50
000
ASUS43 KMPX 270610
RWRMN
WEATHER ROUNDUP FOR MINNESOTA
NATIONAL WEATHER SERVICE TWIN CITIES/CHANHASSEN MN
1200 AM CST FRI FEB 27 2015


NOTE: "FAIR" INDICATES FEW OR NO CLOUDS BELOW 12,000 FEET WITH NO
SIGNIFICANT WEATHER AND/OR OBSTRUCTIONS TO VISIBILITY. N/A MEANS
CURRENT SKY AND/OR WEATHER CONDITIONS ARE NOT AVAILABLE.

MNZ060>063-068>070-270700-
   Twin Cities Metro

CITY           SKY/WX    TMP DP  RH WIND       PRES   REMARKS
TWIN CITIES    CLEAR      1  -9  62 NW6       30.49S WCI -10
6HR MIN TEMP:   1; 6HR MAX TEMP:   7;

ST PAUL        CLEAR      2  -8  63 NW8       30.51S WCI -12
CRYSTAL        CLEAR      2  -8  63 NW6       30.48S WCI  -9
BLAINE         CLEAR      1  -8  66 NW8       30.47S WCI -12
EDEN PRAIRIE   CLEAR     -3 -10  72 W6        30.49R WCI -15
6HR MIN TEMP:  -3; 6HR MAX TEMP:   7;

SOUTH ST PAUL  CLEAR      4  -8  58 NW5       30.49S WCI  -6
LAKE ELMO      FAIR       3  -8  60 W7        30.49R WCI  -9
$$
MNZ001>005-007-008-013>017-022>024-027-028-270700-
   Northwest Minnesota

CITY           SKY/WX    TMP DP  RH WIND       PRES   REMARKS
BEMIDJI        PTCLDY    -8 -11  84 W5        30.40S WCI -19
HALLOCK        MOCLDY    -9 -15  77 SW2       30.44F
ROSEAU         FAIR      -2  -9  71 W7        30.40F WCI -16
WARROAD        PTCLDY    -6 -11  77 SW6       30.39F WCI -18
THIEF RVR FALL MOCLDY    -8 -20  54 CALM      30.43S
CROOKSTON      PTCLDY    -9 -15  77 W5        30.48F WCI -21
FOSSTON        PTCLDY   -17 -20  83 S5        30.43F WCI -29
DETROIT LAKES  CLEAR     -2  -6  84 NW7       30.44F WCI -16
MOORHEAD       PTCLDY    -4  -8  84 W8        30.51S WCI -19
PARK RAPIDS    CLEAR     -9 -15  75 CALM      30.41S
MAHNOMEN       FAIR      -7 -11  83 W3        30.44S
$$
MNZ006-009>011-018-025>026-270700-
   North Central Minnesota

CITY           SKY/WX    TMP DP  RH WIND       PRES   REMARKS
BAUDETTE       PTCLDY    -8 -12  83 W5        30.36F WCI -19
FLAG ISLAND    PTCLDY    -6 -11  77 CALM      30.36F
INTL FALLS     PTCLDY   -16 -20  82 SW3       30.37S
6HR MIN TEMP: -16; 6HR MAX TEMP:   0;

WASKISH        PTCLDY    -6  -9  84 SW8       30.39F WCI -21
BIG FORK       CLEAR    -15 -18  84 CALM      30.38S
LONGVILLE      CLEAR    -15 -20  76 CALM      30.41S
GRAND RAPIDS   CLEAR     -6 -11  77 W8        30.36F WCI -21
CRANE LAKE     PTCLDY   -20 -26  76 CALM      30.38F
ORR            PTCLDY    -9 -17  70 CALM      30.33S
COOK           PTCLDY   -11 -17  77 CALM      30.36S
WALKER         FAIR      -7 -11  83 W5        30.41S WCI -19
$$
MNZ012-019>021-037-270700-
   Northeast Minnesota

CITY           SKY/WX    TMP DP  RH WIND       PRES   REMARKS
DULUTH         CLEAR     -2 -14  56 NW13      30.34F WCI -20
6HR MIN TEMP:  -2; 6HR MAX TEMP:   6;

ELY            CLEAR    -13 -18  77 SW3       30.33S
HIBBING        CLEAR     -5 -13  68 NW7       30.36F WCI -19
EVELETH        CLEAR     -2 -11  65 W5        30.36S WCI -12
DULUTH HARBOR  CLEAR      1 -11  55 CALM      30.46R
TWO HARBORS    CLEAR      1 -11  55 NW5       30.33S WCI  -8
SILVER BAY     CLEAR      1 -13  51 W3        30.32S
GRAND MARAIS     N/A      2 -10  57 VRB5      30.35F WCI  -8
G MARAIS ARPRT PTCLDY    -4 -15  59 NW14G22   30.21F WCI -24
$$
MNZ029>031-032-039>041-046>048-054>057-064-270700-
   West Central Minnesota

CITY           SKY/WX    TMP DP  RH WIND       PRES   REMARKS
FERGUS FALLS   CLEAR     -6 -11  77 NW6       30.53S WCI -18
WHEATON        CLEAR     -8 -13  77 W3        30.53F
MORRIS         CLEAR     -6 -11  77 NW8       30.49S WCI -21
ALEXANDRIA     CLEAR     -6 -10  83 W7        30.45S WCI -20
ELBOW LAKE     FAIR      -7 -11  83 NW6       30.48S WCI -20
WADENA         CLEAR     -9 -13  84 W6        30.43S WCI -23
GLENWOOD       CLEAR     -8 -11  84 W6        30.46F WCI -21
APPLETON       CLEAR     -9 -15  77 W8        30.53S WCI -26
BENSON         CLEAR     -8 -15  71 N5        30.49F WCI -19
ORTONVILLE     FAIR      -6 -13  71 W6        30.51S WCI -18
MADISON        CLEAR     -6 -11  77 W8        30.53S WCI -21
WILLMAR        FAIR      -6 -13  71 W5        30.50S WCI -17
$$
MNZ033>034-036-042>043-049>051-058-059-270700-
   Central Minnesota

CITY           SKY/WX    TMP DP  RH WIND       PRES   REMARKS
ST CLOUD       CLEAR     -3  -9  75 NW7       30.47S WCI -16
6HR MIN TEMP:  -3; 6HR MAX TEMP:   4;

SAUK CENTRE    FAIR      -4  -9  81 W5        30.46F WCI -15
PAYNESVILLE    CLEAR     -9 -13  82 SW6       30.48S WCI -22
AITKIN         CLEAR     -4 -13  65 W3        30.41S
PINE RIVER     CLEAR    -13 -18  77 CALM      30.44F
BRAINERD       CLEAR     -6 -14  68 W6        30.44S WCI -19
STAPLES        CLEAR    -11 -15  84 W5        30.44S WCI -23
LONG PRAIRIE   FAIR      -6 -11  77 CALM      30.45S
LITTLE FALLS   CLEAR     -6 -13  71 CALM      30.47S
LITCHFIELD     CLEAR     -2  -9  71 CALM      30.49S
BUFFALO        CLEAR      0  -8  71 W5        30.50S WCI -10
MAPLE LAKE     CLEAR      0  -6  76 NW5       30.49S WCI -10
$$
MNZ037-044-045-052-053-270700-
   East Central Minnesota

CITY           SKY/WX    TMP DP  RH WIND       PRES   REMARKS
PRINCETON      CLEAR     -2 -11  65 W5        30.47R WCI -12
MORA           CLEAR    -11 -17  77 CALM      30.47R
CAMBRIDGE      CLEAR     -6 -15  65 CALM      30.46R
RUSH CITY      CLOUDY    -4 -13  66 CALM      30.47R
MOOSE LAKE     CLEAR      0 -13  55 NW5       30.41S WCI -10
HINCKLEY       FAIR       0 -11  60 W3        30.45R
CLOQUET        CLEAR     -4 -15  59 W8        30.38R WCI -19
MCGREGOR       CLEAR     -4  -9  77 CALM      30.42S
$$
MNZ071>073-080-081-089-090-097-098-270700-
   Southwest Minnesota

CITY           SKY/WX    TMP DP  RH WIND       PRES   REMARKS
MONTEVIDEO     CLEAR     -6 -11  77 NW5       30.53S WCI -17
GRANITE FALLS  CLEAR    -10 -15  79 W5        30.54S WCI -22
CANBY          CLEAR     -6 -11  77 W6        30.53S WCI -18
MARSHALL       CLEAR     -8 -15  71 W9        30.51F WCI -25
REDWOOD FALLS  CLEAR     -7 -12  79 W9        30.53R WCI -24
OLIVIA         CLEAR     -6 -11  77 NW7       30.51S WCI -20
PIPESTONE      PTCLDY    -6  -9  84 NW5       30.46S WCI -17
WINDOM         CLEAR     -9 -13  84 CALM      30.49R
WORTHINGTON    CLEAR     21 -20  15 W9        30.49S WCI  11
JACKSON        CLEAR     -6 -13  71 NW6       30.49S WCI -18
TRACY          CLEAR     -3  -9  74 NW7       30.50S WCI -16
SLAYTON        CLEAR    -11 -17  75 CALM      30.47S
$$
MNZ065>067-074>077-082>085-091>093-270700-
   South Central Minnesota

CITY           SKY/WX    TMP DP  RH WIND       PRES   REMARKS
MANKATO        CLEAR     -6 -15  65 W5        30.50R WCI -17
NEW ULM        CLEAR    -11 -18  70 W6        30.51S WCI -25
ST JAMES       CLEAR     -6 -11  77 W8        30.52S WCI -21
FAIRMONT       CLEAR     -6 -11  77 W6        30.48S WCI -18
GLENCOE        CLEAR     -5 -10  80 W6        30.49S WCI -18
FARIBAULT      CLEAR     -8 -11  84 W3        30.49R
OWATONNA       CLEAR    -13 -18  77 SW3       30.48S
WASECA         CLEAR    -11 -17  77 SW3       30.50S HAZE
ALBERT LEA     CLEAR     -9 -13  84 W3        30.47S
$$
MNZ078>079-086>088-094>096-270700-
   Southeast Minnesota

CITY           SKY/WX    TMP DP  RH WIND       PRES   REMARKS
ROCHESTER      CLEAR     -9 -14  78 W10       30.44S WCI -27
6HR MIN TEMP: -10; 6HR MAX TEMP:   1;

RED WING       CLEAR     -8 -13  77 NW3       30.49S
STANTON        CLEAR     -5 -11  74 SW3       30.48S
DODGE CENTER   PTCLDY    -6  -9  84 W9        30.44S WCI -22
WINONA         CLEAR     -6  -9  84 CALM      30.52R
AUSTIN         CLEAR     -6  -9  84 NW9       30.46S WCI -22
PRESTON        FAIR      -7 -13  78 NW12      30.45S WCI -26
$$
ABBREVIATIONS USED IN REMARKS
   TC - TEMPERATURES IN CELSIUS
  WCI - WIND CHILL INDEX
   HX - HEAT INDEX
  VSB - VISIBILITY
$$


USA.gov is the U.S. government's official web portal to all federal, state and local government web resources and services.